Home   Weather   Zerbst/Anhalt   Past weeks

Flag for Germany Past Weather in Zerbst/Anhalt, Saxony-Anhalt, Germany — Yesterday and Last 2 Weeks

Now
63 °F

Clear.


Feels Like: 63 °F
Forecast: 52 / 64 °F
Wind: 14 mph from Southwest

Location: Leipzig-Schkeuditz

Current Time: Sep 30, 2016 at 1:55:43 AM

Latest Report: Sep 30, 2016 at 1:20 AM


Visibility: 10 mi

Pressure: 29.89 "Hg

Humidity: 73%

Dew Point: 54 °F

Location of Zerbst/AnhaltLocation

Past Weather in Zerbst/Anhalt — Graph

°F

Zerbst/Anhalt Temperature Yesterday

Maximum temperature yesterday: 79 °F (at 3:20 PM)
Minimum temperature yesterday: 59 °F (at 6:50 AM)
Average temperature yesterday: 68 °F

High & Low Weather Summary for the Past Weeks

 TemperatureHumidityPressure
High81 °F (Sep 15, 3:20 PM)100% (Sep 16, 11:50 PM)30.33 "Hg (Sep 16, 11:50 PM)
Low48 °F (Sep 22, 6:50 AM)30% (Sep 15, 3:20 PM)29.86 "Hg (Sep 17, 3:50 AM)
Average61 °F74%30.09 "Hg
* Reported Sep 15 12:20 AM — Sep 30 12:20 AM, Zerbst/Anhalt, Weather by CustomWeather, © 2016

Note: Actual official high and low records may vary slightly from our data, if they occured in-between our weather recording intervals... More about our weather records

Advertising

Zerbst/Anhalt Weather History for the Previous 24 Hours

Scroll right to see more
 ConditionsComfort  
Time TempWeatherWind HumidityBarometerVisibility
12:20 AM
Fri, Sep 30
64 °FClear.10 mph68%29.89 "Hg10 mi
11:50 PM
Thu, Sep 29
66 °FClear.12 mph64%29.89 "Hg10 mi
11:20 PM66 °FClear.14 mph64%29.89 "Hg10 mi
10:50 PM68 °FClear.14 mph60%29.89 "Hg10 mi
10:20 PM68 °FClear.15 mph60%29.89 "Hg10 mi
9:50 PM70 °FClear.16 mph57%29.89 "Hg10 mi
9:20 PM70 °FClear.10 mph57%29.89 "Hg10 mi
8:50 PM70 °FClear.9 mph57%29.89 "Hg10 mi
8:20 PM70 °FClear.9 mph57%29.92 "Hg10 mi
7:50 PM72 °FClear.14 mph53%29.89 "Hg10 mi
7:20 PM73 °FClear.20 mph50%29.89 "Hg10 mi
6:50 PM73 °FSunny.15 mph47%29.89 "Hg10 mi
6:20 PM75 °FSunny.16 mph44%29.89 "Hg10 mi
5:50 PM75 °FSunny.17 mph41%29.89 "Hg10 mi
5:20 PM77 °FSunny.18 mph39%29.92 "Hg10 mi
4:50 PM77 °FSunny.23 mph36%29.92 "Hg10 mi
4:20 PM79 °FSunny.24 mph32%29.92 "Hg10 mi
3:50 PM79 °FSunny.24 mph34%29.92 "Hg10 mi
3:20 PM79 °FSunny.25 mph34%29.92 "Hg10 mi
2:50 PM77 °FPassing clouds.17 mph34%29.95 "HgN/A
2:20 PM75 °FSunny.14 mph44%29.98 "Hg10 mi
1:50 PM75 °FSunny.20 mph41%29.98 "Hg10 mi
1:20 PM75 °FSunny.18 mph39%30.01 "Hg10 mi
12:50 PM75 °FSunny.17 mph39%30.04 "Hg10 mi
12:20 PM73 °FSunny.14 mph47%30.04 "Hg10 mi
11:50 AM72 °FSunny.16 mph47%30.07 "Hg10 mi
11:20 AM72 °FSunny.18 mph50%30.07 "Hg10 mi
10:50 AM70 °FSunny.17 mph53%30.07 "Hg10 mi
10:20 AM68 °FSunny.17 mph56%30.09 "Hg10 mi
9:50 AM66 °FSunny.15 mph64%30.09 "Hg10 mi
9:20 AM64 °FSunny.14 mph68%30.09 "Hg10 mi
8:50 AM63 °FSunny.15 mph68%30.09 "Hg10 mi
8:20 AM61 °FSunny.13 mph72%30.09 "Hg10 mi
7:50 AM61 °FSunny.15 mph72%30.12 "Hg10 mi
7:20 AM59 °FSunny.9 mph77%30.12 "Hg10 mi
6:50 AM59 °FPassing clouds.12 mph77%30.12 "HgN/A
6:20 AM61 °FClear.12 mph72%30.12 "Hg10 mi
5:50 AM61 °FClear.13 mph72%30.12 "Hg10 mi
5:20 AM61 °FClear.10 mph72%30.15 "Hg10 mi
4:50 AM61 °FClear.12 mph72%30.15 "Hg10 mi
4:20 AM61 °FPassing clouds.10 mph72%30.15 "HgN/A
3:50 AM61 °FClear.13 mph77%30.15 "Hg10 mi
3:20 AM61 °FClear.14 mph77%30.15 "Hg10 mi
2:50 AM61 °FClear.10 mph77%30.18 "Hg10 mi
2:20 AM61 °FClear.10 mph77%30.18 "Hg10 mi
1:50 AM61 °FClear.10 mph77%30.21 "Hg10 mi
1:20 AM63 °FClear.12 mph73%30.18 "Hg10 mi
Weather by CustomWeather, © 2016

See weather overviewHow to use our weather pages